(116659) = 1999 FP46 = 2004 CW36

Discovered at Desert Eagle on 2004-02-12 by W. K. Y. Yeung.

Orbit

Orbit type: Main Belt

Note: WebGL enabled browser required.

epoch2023-09-13.0
epoch JD2460200.5
perihelion date2019-01-04.28623
perihelion JD2458487.78623
argument of perihelion (°)311.46211
ascending node (°)163.84019
inclination (°)13.02470
eccentricity0.0953711
perihelion distance (AU)2.6919152
Tisserand w.r.t. Jupiter3.2
ΔV w.r.t. Earth (km/sec)11.0
semimajor axis (AU)2.9757121
mean anomaly (°)328.85336
mean daily motion (°/day)0.19200720
aphelion distance (AU)3.260
period (years)5.13
P-vector [x]-0.43275999
P-vector [y]0.87965520
P-vector [z]0.19729553
Q-vector [x]-0.89932442
Q-vector [y]-0.43647291
Q-vector [z]-0.02658933
absolute magnitude15.33
phase slope0.15
uncertainty0
referenceMPEC 2024-B79
observations used892
oppositions20
arc length (days)10912
first opposition used1994
last opposition used2024
residual rms (arc-secs)0.73
perturbers coarse indicatorM-v
perturbers precise indicator003Ek
first observation date used1994-03-05.0
last observation date used2024-01-19.0
computer nameMPCLINUX
JD of orbit computation2456819.601380
perihelion JD uncertainty (days)1.1591E-04
argument of perihelion uncertainty (°)2.9357E-05
ascending node uncertainty (°)1.8349E-05
inclination uncertainty (°)4.5011E-06
eccentricity uncertainty 3.8642E-08
perihelion distance uncertainty (AU)1.1854E-07
Minimum Orbit Intersection Distances (in AU)
for orbit epoch: 2460200.5, reference: E2024-B79
Mercury2.37748
Venus1.99316
Earth1.72478
Mars1.08318
Jupiter1.83031
Saturn6.37153
Uranus15.6355
Neptune26.8027

Observations

911 total observations over interval: 1994 03 05.48483 – 2024 01 19.471278
These data are available for download (format description).

Date (UT) J2000 RA J2000 Dec Magn Location Ref
1994 03 05.48483 12 44 49.77 +01 22 28.5   691 – Steward Observatory, Kitt Peak-Spacewatch MPS 108501
1994 03 05.49979 12 44 49.34 +01 22 35.6 19.3 V 691 – Steward Observatory, Kitt Peak-Spacewatch MPS 108501
1994 03 05.51491 12 44 48.84 +01 22 43.5   691 – Steward Observatory, Kitt Peak-Spacewatch MPS 108501
1999 03 20.21122 11 35 48.20 +06 36 13.3 19.3   704 – Lincoln Laboratory ETS, New Mexico MPS 4544
1999 03 20.22933 11 35 47.29 +06 36 22.6 19.3   704 – Lincoln Laboratory ETS, New Mexico MPS 4544
1999 03 20.24731 11 35 46.54 +06 36 31.8 20.3   704 – Lincoln Laboratory ETS, New Mexico MPS 4544
1999 03 23.25106 11 33 43.77 +07 03 22.1 19.7   704 – Lincoln Laboratory ETS, New Mexico MPS 4544
1999 03 23.26565 11 33 43.18 +07 03 26.6 19.5   704 – Lincoln Laboratory ETS, New Mexico MPS 4545
1999 03 23.28032 11 33 42.52 +07 03 35.6 19.5   704 – Lincoln Laboratory ETS, New Mexico MPS 4545
2002 10 31.33316 03 43 40.02 +01 34 31.1 19.9   704 – Lincoln Laboratory ETS, New Mexico MPS 137050
2002 10 31.36761 03 43 38.62 +01 34 18.9 20.3   704 – Lincoln Laboratory ETS, New Mexico MPS 137050
2002 10 31.38469 03 43 37.91 +01 34 10.1 19.8   704 – Lincoln Laboratory ETS, New Mexico MPS 137050
2002 10 31.40178 03 43 37.14 +01 34 04.7 19.8   704 – Lincoln Laboratory ETS, New Mexico MPS 137050
2002 11 07.303910 03 38 38.194 +00 51 19.89 19.43 V 645 – Apache Point-Sloan Digital Sky Survey MPS 137050
2002 11 07.307382 03 38 38.033 +00 51 18.61 20.18   645 – Apache Point-Sloan Digital Sky Survey MPS 137050
2002 11 30.21519 03 20 41.18 -00 39 10.8 19.3   704 – Lincoln Laboratory ETS, New Mexico MPS 137050
2002 11 30.22987 03 20 40.55 -00 39 11.2 19.7   704 – Lincoln Laboratory ETS, New Mexico MPS 137050
2002 11 30.27434 03 20 38.49 -00 39 16.2 19.7   704 – Lincoln Laboratory ETS, New Mexico MPS 137050
2002 12 31.10019 03 06 53.96 +00 01 06.6 20.0   809 – European Southern Observatory, La Silla MPS 135354
2002 12 31.10797 03 06 53.90 +00 01 08.5   809 – European Southern Observatory, La Silla MPS 135354
2002 12 31.11593 03 06 53.84 +00 01 10.4   809 – European Southern Observatory, La Silla MPS 135354
2002 12 31.12381 03 06 53.79 +00 01 12.3   809 – European Southern Observatory, La Silla MPS 135354
2002 12 31.13124 03 06 53.73 +00 01 14.1   809 – European Southern Observatory, La Silla MPS 135354
2002 12 31.13869 03 06 53.67 +00 01 15.9   809 – European Southern Observatory, La Silla MPS 135354
2002 12 31.14623 03 06 53.62 +00 01 17.8   809 – European Southern Observatory, La Silla MPS 135354
2004 01 29.33492 11 03 59.30 +02 08 39.1 19.0 C 704 – Lincoln Laboratory ETS, New Mexico MPS 294132
2004 01 29.34722 11 03 58.98 +02 08 43.1 18.8 C 704 – Lincoln Laboratory ETS, New Mexico MPS 294132
2004 01 29.35935 11 03 58.79 +02 08 45.2 19.5 C 704 – Lincoln Laboratory ETS, New Mexico MPS 294132
2004 01 29.37182 11 03 58.55 +02 08 49.8 18.9 C 704 – Lincoln Laboratory ETS, New Mexico MPS 294132
2004 01 29.38402 11 03 58.29 +02 08 55.4 19.6 R 699 – Lowell Observatory-LONEOS MPS 98970
2004 01 29.39895 11 03 57.98 +02 09 00.3   699 – Lowell Observatory-LONEOS MPS 98970
2004 01 29.41388 11 03 57.61 +02 09 05.1   699 – Lowell Observatory-LONEOS MPS 98970
2004 01 29.42895 11 03 57.34 +02 09 10.6   699 – Lowell Observatory-LONEOS MPS 98970
2004 02 12.35703 10 57 34.68 +03 47 25.9 19.8 R 333 – Desert Eagle Observatory MPS 98970
2004 02 12.37112 10 57 34.14 +03 47 31.9 20.1 R 333 – Desert Eagle Observatory MPS 98970
2004 02 12.38514 10 57 33.63 +03 47 39.9 20.5 R 333 – Desert Eagle Observatory MPS 98970
2004 02 14.51644 10 56 17.19 +04 05 27.5 20.4   608 – Haleakala-AMOS MPS 98970
2004 02 14.52730 10 56 16.76 +04 05 33.4 20.4   608 – Haleakala-AMOS MPS 98970
2004 02 14.53798 10 56 16.35 +04 05 38.5 20.7   608 – Haleakala-AMOS MPS 98970
2004 02 18.34550 10 53 50.86 +04 38 46.9 19.0   704 – Lincoln Laboratory ETS, New Mexico MPS 98970
2004 02 18.35712 10 53 50.38 +04 38 52.7 19.2   704 – Lincoln Laboratory ETS, New Mexico MPS 98970
2004 02 18.36879 10 53 49.88 +04 38 59.1 19.4   704 – Lincoln Laboratory ETS, New Mexico MPS 98970
2004 02 18.38043 10 53 49.48 +04 39 05.2 19.5   704 – Lincoln Laboratory ETS, New Mexico MPS 98970
2004 02 18.39264 10 53 48.84 +04 39 12.1 19.3   704 – Lincoln Laboratory ETS, New Mexico MPS 98970
2004 02 25.23646 10 49 06.57 +05 42 07.7 20.2 R 333 – Desert Eagle Observatory MPS 100160
2004 02 25.28372 10 49 04.47 +05 42 34.9 20.4 R 333 – Desert Eagle Observatory MPS 100160
2004 02 25.32892 10 49 02.47 +05 43 00.2 20.0 R 333 – Desert Eagle Observatory MPS 100160
2004 02 25.37288 10 49 00.56 +05 43 24.7 20.1 R 333 – Desert Eagle Observatory MPS 100160
2004 02 26.28089 10 48 21.97 +05 51 58.8 19.3   704 – Lincoln Laboratory ETS, New Mexico MPS 100160
2004 02 26.29210 10 48 21.43 +05 52 04.6 19.3   704 – Lincoln Laboratory ETS, New Mexico MPS 100160
2004 02 26.30328 10 48 20.93 +05 52 11.1 19.5   704 – Lincoln Laboratory ETS, New Mexico MPS 100160
2004 02 26.31444 10 48 20.45 +05 52 17.5 19.3   704 – Lincoln Laboratory ETS, New Mexico MPS 100160
2004 02 26.32569 10 48 19.96 +05 52 24.1 19.1   704 – Lincoln Laboratory ETS, New Mexico MPS 100160
2004 02 29.27988 10 46 13.16 +06 20 23.2 18.4 C 704 – Lincoln Laboratory ETS, New Mexico MPS 294132
2004 02 29.29193 10 46 12.66 +06 20 30.2 18.4 C 704 – Lincoln Laboratory ETS, New Mexico MPS 294132
2004 02 29.30393 10 46 12.05 +06 20 37.9 18.3 C 704 – Lincoln Laboratory ETS, New Mexico MPS 294132
2004 02 29.31638 10 46 11.51 +06 20 44.7 18.5 C 704 – Lincoln Laboratory ETS, New Mexico MPS 294132
2004 02 29.32870 10 46 10.88 +06 20 52.3 18.3 C 704 – Lincoln Laboratory ETS, New Mexico MPS 294132
2004 03 01.27698 10 45 30.27 +06 29 51.9 19.2   704 – Lincoln Laboratory ETS, New Mexico MPS 100725
2004 03 01.28877 10 45 29.85 +06 29 58.1 19.2   704 – Lincoln Laboratory ETS, New Mexico MPS 100725
2004 03 01.30001 10 45 29.26 +06 30 04.9 18.9   704 – Lincoln Laboratory ETS, New Mexico MPS 100725
2004 03 01.31135 10 45 28.76 +06 30 10.3 19.0   704 – Lincoln Laboratory ETS, New Mexico MPS 100725
2004 03 01.32265 10 45 28.22 +06 30 17.6 19.1   704 – Lincoln Laboratory ETS, New Mexico MPS 100725
2004 03 11.21652 10 38 34.53 +08 02 53.7 18.7   644 – Palomar Mountain/NEAT MPS 101226
2004 03 11.23679 10 38 33.69 +08 03 05.0 18.8   644 – Palomar Mountain/NEAT MPS 101226
2004 03 11.25817 10 38 32.81 +08 03 16.6 18.3   644 – Palomar Mountain/NEAT MPS 101226
2004 03 14.15325 10 36 40.39 +08 29 12.7 19.7 V 691 – Steward Observatory, Kitt Peak-Spacewatch MPS 101226
2004 03 14.16885 10 36 39.78 +08 29 20.7 19.8 V 691 – Steward Observatory, Kitt Peak-Spacewatch MPS 101226
2004 03 14.18495 10 36 39.16 +08 29 29.3 20.0 V 691 – Steward Observatory, Kitt Peak-Spacewatch MPS 101226
2004 03 15.24286 10 35 59.30 +08 38 45.8 19.3 V 703 – Catalina Sky Survey MPS 101226
2004 03 15.25278 10 35 59.03 +08 38 52.6 18.9   704 – Lincoln Laboratory ETS, New Mexico MPS 101226
2004 03 15.25767 10 35 58.78 +08 38 53.7 19.1 V 703 – Catalina Sky Survey MPS 101226
2004 03 15.26340 10 35 58.61 +08 38 56.9 18.9   704 – Lincoln Laboratory ETS, New Mexico MPS 101226
2004 03 15.27244 10 35 58.26 +08 39 01.5 19.1 V 703 – Catalina Sky Survey MPS 101226
2004 03 15.27417 10 35 58.17 +08 39 02.9 19.2   704 – Lincoln Laboratory ETS, New Mexico MPS 101226
2004 03 15.28493 10 35 57.82 +08 39 08.3 19.2   704 – Lincoln Laboratory ETS, New Mexico MPS 101226
2004 03 15.28735 10 35 57.55 +08 39 09.1 19.7 V 703 – Catalina Sky Survey MPS 101226
2004 03 15.29563 10 35 57.36 +08 39 13.4 19.5   704 – Lincoln Laboratory ETS, New Mexico MPS 101226
2004 03 18.28514 10 34 10.34 +09 04 44.8 18.8   704 – Lincoln Laboratory ETS, New Mexico MPS 102234
2004 03 18.29647 10 34 09.91 +09 04 49.8 19.2   704 – Lincoln Laboratory ETS, New Mexico MPS 102234
2004 03 18.30829 10 34 09.51 +09 04 55.8 19.1   704 – Lincoln Laboratory ETS, New Mexico MPS 102234
2004 03 18.31985 10 34 09.11 +09 05 01.8 19.2   704 – Lincoln Laboratory ETS, New Mexico MPS 102234
2004 03 18.33137 10 34 08.68 +09 05 07.9 18.7   704 – Lincoln Laboratory ETS, New Mexico MPS 102234
2004 03 19.22142 10 33 38.59 +09 12 30.8 19.2   704 – Lincoln Laboratory ETS, New Mexico MPS 102234
